Location: La Ronge
(55.1000°N, 105.3000°W)
Time: 00:43:00
(UTC-06:00)

Daily predictions for brighter satellites

Satellite Brightness Start Highest point End
(mag) Time Altitude Azimuth Time Altitude Azimuth Time Altitude Azimuth
Cosmos 1833 4.3 00:00:01 10° NNW 00:05:40 77° NE 00:09:47 19° SE
Cosmos 44 Rocket 3.6 00:00:27 10° NW 00:05:40 73° NE 00:09:51 15° SE
CZ-4B R/B 1.7 00:04:45 29° SE 00:06:02 51° ENE 00:09:09 10° N
SeaSat 1 4.2 00:03:13 10° E 00:07:28 30° NE 00:11:43 10° NNW
Cosmos 1331 Rocket 4.2 00:02:30 10° SW 00:07:40 73° WNW 00:12:51 10° NNE
Cosmos 1400 Rocket 2.9 00:11:14 23° SSW 00:13:48 81° WNW 00:18:00 10° NNE
Cosmos 1536 2.8 00:12:05 25° SSW 00:14:23 84° W 00:18:24 10° N
Cosmos 1110 Rocket 4.5 00:09:21 10° SW 00:14:31 60° WNW 00:19:41 10° NNE
GP-B 4.2 00:11:00 10° NNE 00:15:04 33° E 00:17:25 20° SE
Landsat 5 3.7 00:13:22 25° SSE 00:15:47 67° ENE 00:19:56 10° N
NOSS 3-1 (A) 4.5 00:11:37 10° NW 00:18:33 45° SW 00:23:39 21° S
Cosmos 968 Rocket 3.8 00:14:00 10° NNW 00:19:15 63° ENE 00:22:58 19° SE
Cosmos 1447 Rocket 4.5 00:14:19 10° N 00:20:32 85° E 00:24:37 23° SSE
H-2A R/B 3.2 00:18:12 10° NNE 00:22:36 44° E 00:24:44 26° SSE
CZ-2C R/B 3.9 00:20:59 15° SE 00:24:38 40° ENE 00:29:07 10° N
Meteor 2-14 Rocket 4.5 00:20:49 19° SSW 00:25:22 84° WNW 00:31:35 10° NNE
Cosmos 2369 Rocket 2.4 00:23:58 23° S 00:27:24 56° ESE 00:32:54 10° NE
Cosmos 1356 4.4 00:28:08 19° SW 00:30:23 44° WNW 00:33:49 10° N
CZ-2C R/B 3.7 00:26:02 10° NNE 00:30:40 31° E 00:33:24 20° SE
Cosmos 1975 3.8 00:30:13 25° SE 00:31:53 36° E 00:35:39 10° NNE
Cosmos 2219 3.4 00:26:41 10° NNW 00:32:21 68° NE 00:36:49 16° SE
Cosmos 2227 Rocket 3.8 00:29:31 10° NNW 00:34:40 33° NE 00:39:47 10° ESE
Cosmos 1066 Rocket 4.5 00:29:53 10° N 00:35:11 58° ENE 00:38:44 21° SE
Cosmos 1633 3.2 00:33:32 23° SW 00:35:38 53° WNW 00:39:17 10° N
Cosmos 1892 Rocket 4.5 00:31:54 10° NNW 00:35:59 39° W 00:38:22 21° SSW
H-2A R/B 4.5 00:37:14 10° WSW 00:39:36 13° W 00:41:58 10° NW
ATLAS 2AS CENTAUR R/B 3.1 00:32:02 10° NW 00:40:08 69° SW 00:46:07 19° SSE
Cosmos 44 3.7 00:35:49 10° NW 00:41:11 71° NE 00:45:55 12° ESE
Cosmos 2100 Rocket 4.4 00:37:27 22° SSE 00:41:26 53° E 00:47:35 10° NNE
Cosmos 1689 Rocket 2.5 00:42:55 38° SSW 00:43:53 58° WSW 00:47:04 10° NNW
Cosmos 1818 4.3 00:47:22 25° SSE 00:49:40 36° ESE 00:54:40 10° NE
MOS 1-B Rocket 4.3 00:45:51 23° S 00:49:57 75° WSW 00:57:13 10° NNW
USA 234 3.2 00:45:52 10° ENE 00:52:26 69° SSE 00:58:57 10° SW
Cosmos 2297 Rocket 3.8 00:50:53 10° NNW 00:56:02 34° NE 01:01:10 10° ESE
Cosmos 1602 Rocket 3.8 00:51:49 10° NNW 00:56:12 61° W 00:58:23 28° SSW
Cosmos 2061 Rocket 4.3 00:53:10 23° SSE 00:57:13 61° E 01:03:32 10° NNE
Cosmos 1459 Rocket 4.1 00:53:47 24° SSE 00:57:32 62° E 01:03:31 10° NNE
Meteor 1-5 Rocket 4.1 00:54:19 23° SSW 00:57:47 77° WNW 01:03:08 10° NNE
Cosmos 2016 Rocket 4.5 00:56:08 22° SSE 00:59:55 48° E 01:05:45 10° NNE
Cosmos 1626 Rocket 3.9 00:56:32 10° NNW 01:00:56 55° W 01:03:07 28° SSW
Cosmos 1992 Rocket 4.0 00:58:42 25° SSW 01:01:44 73° ESE 01:06:57 10° NNE
ISS -3.1 00:59:11 10° WSW 01:02:19 45° S 01:02:38 43° SSE
Cosmos 1777 Rocket 4.0 00:57:07 10° NNW 01:02:23 81° ENE 01:05:52 21° SSE
Cosmos 1605 Rocket 4.3 00:57:39 19° SSW 01:02:23 64° WNW 01:08:47 10° N
Cosmos 1943 Rocket 2.6 01:00:09 25° S 01:03:00 47° ESE 01:08:23 10° NE
Cosmos 1500 3.7 01:03:23 30° SSE 01:04:52 47° E 01:08:33 10° NNE
Cosmos 1802 Rocket 4.2 01:04:04 24° SSE 01:07:58 63° E 01:14:13 10° NNE
Cosmos 1515 3.8 01:04:19 10° NNW 01:08:10 65° W 01:09:43 33° SSW
Cosmos 2285 Rocket 4.2 01:04:24 15° SW 01:09:44 72° WNW 01:16:11 10° NNE
ALOS 2 3.8 01:08:39 21° SW 01:10:43 31° W 01:14:38 10° NNW
Cosmos 1455 Rocket 3.6 01:08:13 22° SW 01:10:46 52° WNW 01:15:03 10° N
Cosmos 1315 Rocket 4.2 01:14:36 16° WSW 01:17:12 32° WNW 01:20:47 10° N
Cosmos 2173 Rocket 4.0 01:14:29 24° S 01:18:31 81° E 01:24:56 10° NNE
Genesis I 3.6 01:18:18 14° WSW 01:21:45 64° NW 01:25:46 10° NE
Lacrosse 5 rocket 0.9 01:19:38 20° WSW 01:22:09 72° SSE 01:25:49 10° ENE
Uosat 12 SS-18 rocket 4.1 01:18:29 10° NW 01:22:56 83° SW 01:27:11 14° SE
Cosmos 1346 Rocket 4.4 01:30:08 10° NW 01:33:13 22° W 01:34:42 18° WSW
PSLV R/B 3.9 01:32:20 28° SSE 01:34:26 86° WSW 01:38:39 10° NNW
Meteor 1-12 Rocket 4.4 01:30:51 22° SSW 01:34:32 68° WNW 01:40:13 10° N
Cosmos 2263 4.3 01:30:26 18° SW 01:34:39 77° NW 01:40:22 10° NNE
Cosmos 1725 Rocket 4.3 01:32:12 22° SSE 01:36:14 60° E 01:42:19 10° NNE
Helios 1A Rocket 3.0 01:33:04 10° NNE 01:37:14 72° WNW 01:39:24 27° SSW
CZ-4B R/B 3.5 01:38:29 13° WSW 01:39:13 14° W 01:40:59 10° NW
Lacrosse 5 1.8 01:35:54 10° WSW 01:41:00 78° SSE 01:46:08 10° ENE
Tsikada Rocket 4.0 01:35:11 10° NNW 01:41:32 87° WSW 01:45:55 21° S
BREEZE-M DEB (TANK) 4.3 01:38:03 10° WSW 01:41:40 29° SSW 01:51:33 10° SE
SeaSat 1 2.4 01:40:59 18° SSE 01:44:39 80° WSW 01:49:38 10° NW
Cosmos 1606 Rocket 3.7 01:44:18 27° S 01:46:31 65° E 01:50:50 10° NNE
Cosmos 44 Rocket 4.4 01:42:27 10° WNW 01:46:52 29° WSW 01:48:32 24° SSW
GP-B 4.1 01:48:19 10° NNW 01:52:26 37° WNW 01:54:52 21° SW
H-2A R/B 4.0 01:53:59 10° N 01:58:03 32° WNW 02:01:22 14° WSW
Meteor 1-21 4.4 01:54:00 10° NNW 01:59:31 61° W 02:03:00 23° S
Cosmos 1898 Rocket 3.9 01:56:13 10° NNW 02:01:33 65° ENE 02:06:52 10° SE
PSLV R/B 4.5 01:57:59 10° NNE 02:02:13 42° E 02:05:00 20° SSE
NOSS 3-4 (A) 3.8 01:56:34 10° NW 02:03:23 87° NE 02:10:38 10° SE
NOSS 3-4 (C) 3.8 01:56:39 10° NW 02:03:31 86° NE 02:10:48 10° SE
Cosmos 1340 2.7 02:00:10 10° NNW 02:03:58 68° W 02:05:46 29° S
CZ-2C R/B 3.7 02:02:04 23° SSW 02:04:35 38° W 02:09:07 10° NNW
Cosmos 1743 2.8 02:03:53 29° SSW 02:05:45 70° WNW 02:09:40 10° N
SL-16 R/B 4.1 02:02:03 10° ESE 02:07:27 34° NE 02:12:53 10° N
Cosmos 1953 Rocket 4.0 02:03:19 10° NNW 02:07:28 45° W 02:09:35 25° SSW
Cosmos 2058 Rocket 3.2 02:05:01 25° S 02:07:34 70° E 02:12:02 10° NNE
Cosmos 972 Rocket 3.9 02:02:50 10° NNW 02:07:46 88° WSW 02:11:52 16° SSE
Cosmos 1975 4.3 02:06:02 17° WSW 02:08:30 29° WNW 02:12:06 10° N
Cosmos 1570 Rocket 4.5 02:05:22 22° S 02:08:39 53° ESE 02:13:50 10° NE
Cosmos 2082 3.7 02:03:20 10° NW 02:09:02 89° WSW 02:14:41 10° SSE
CZ-2C R/B 3.1 02:06:10 10° N 02:11:14 54° WNW 02:14:56 19° SW
Cosmos 2369 Rocket 3.3 02:06:22 10° WSW 02:11:40 40° NW 02:16:59 10° NNE
Cosmos 1937 Rocket 4.0 02:07:45 10° NNW 02:12:53 59° ENE 02:18:01 10° SE
Cosmos 2219 4.2 02:11:20 10° NW 02:16:08 29° WSW 02:18:42 20° SSW
NOSS 3-3 (A) 4.4 02:12:16 21° SSW 02:16:27 54° SE 02:23:09 10° NE
NOSS 3-3 (C) 4.4 02:12:22 21° SSW 02:16:33 54° SE 02:23:14 10° NE
Cosmos 1842 3.6 02:14:16 10° NNW 02:18:09 51° W 02:20:06 26° SSW
Cosmos 2227 Rocket 2.2 02:13:34 10° NW 02:19:16 75° WSW 02:24:42 11° SSE
Meteor 2-9 Rocket 4.4 02:15:38 20° S 02:19:46 71° E 02:25:31 10° NNE
Cosmos 44 4.3 02:17:32 10° WNW 02:22:08 31° WSW 02:24:17 22° SSW
Cosmos 1726 Rocket 3.6 02:20:08 25° SSW 02:22:38 70° WNW 02:26:58 10° N
GEOS 3 Rocket 4.0 02:19:26 10° ESE 02:24:36 68° NE 02:29:44 10° NW
ATLAS CENTAUR R/B 3.9 02:24:32 10° SSE 02:27:38 17° ESE 02:30:44 10° ENE
Meteor 1-15 Rocket 4.4 02:23:25 19° S 02:27:40 74° E 02:33:36 10° NNE
Meteor 2-5 Rocket 4.0 02:23:18 10° NNW 02:29:10 72° ENE 02:35:05 10° SSE
ATLAS 2AS CENTAUR R/B 4.2 02:24:02 10° WNW 02:29:55 23° WSW 02:33:30 16° SW
Resurs 1-4 Rocket 4.4 02:28:45 10° NE 02:32:02 16° E 02:35:18 10° ESE
Cosmos 1666 2.7 02:30:40 25° SSW 02:32:44 76° WNW 02:36:33 10° N
Cosmos 1818 3.9 02:27:58 12° WSW 02:33:02 66° NW 02:38:32 10° NE
BREEZE-M DEB (TANK) 3.9 02:36:01 12° SE 02:36:01 12° SE 02:36:41 10° SE
Cosmos 1461 4.3 02:31:01 10° NW 02:35:10 42° NNE 02:39:06 10° ESE
USA 234 3.4 02:29:02 10° ENE 02:35:36 79° N 02:42:09 10° W
Okean 3 Rocket 4.2 02:31:56 10° N 02:36:19 54° ENE 02:40:37 10° SSE
Cosmos 1656 Rocket 3.7 02:33:08 19° SW 02:37:21 81° NW 02:43:00 10° NNE
SL-08 R/B 3.3 02:33:19 14° SSE 02:37:23 89° E 02:42:03 10° NNW
ISS-0.802:41:15SE02:41:15SE02:35:08W
Cosmos 2297 Rocket 2.2 02:34:55 10° NW 02:40:35 72° WSW 02:46:12 10° SSE
Cosmos 2233 Rocket 4.0 02:36:46 19° SSW 02:41:21 82° W 02:47:33 10° N
NPP 4.2 02:37:03 10° NNE 02:42:20 52° E 02:46:51 14° S
Cosmos 2278 4.4 02:40:47 16° S 02:44:58 45° ESE 02:50:22 10° NE
Cosmos 405 Rocket 2.8 02:42:26 10° NNW 02:46:34 90° E 02:49:57 14° SSE
Cosmos 1943 Rocket 3.0 02:41:39 11° WSW 02:46:51 45° NW 02:52:17 10° NNE
Meteor 2-17 Rocket 4.5 02:46:02 18° SSW 02:50:45 77° WNW 02:56:54 10° N
Cosmos 972 4.3 02:48:42 10° NNW 02:53:36 70° WSW 02:58:31 10° SSE
Cosmos 2208 Rocket 4.0 02:50:42 18° SSW 02:54:34 82° WNW 02:59:55 10° NNE
JB-3 4.4 02:51:08 10° NNE 02:55:12 75° WNW 02:58:05 19° SSW
CBERS-1 4.5 02:50:22 10° NNE 02:55:27 56° E 02:59:56 13° S
Landsat 4 4.1 02:53:50 20° S 02:56:16 49° W 03:00:01 10° NNW
Cosmos 220 Rocket 4.3 02:53:02 10° NW 02:57:15 48° WSW 03:00:31 16° S
Cosmos 2298 Rocket 4.3 02:52:48 10° NW 02:57:56 50° WSW 03:02:30 13° S
BREEZE-M DEB (TANK) 3.9 02:53:02 10° W 02:58:00 20° SW 02:58:51 19° SW
Cosmos 1076 Rocket 4.4 02:56:45 10° N 03:01:00 48° ENE 03:05:10 10° SSE
Lacrosse 5 rocket 1.5 02:57:46 10° W 03:01:27 63° N 03:05:06 10° E
ERS-2 3.3 03:01:44 10° NNE 03:05:17 38° E 03:08:38 11° SSE
Cosmos 2228 3.5 03:05:51 17° SW 03:08:53 47° WNW 03:13:02 10° N
Meteor 1-24 Rocket 3.8 03:05:30 10° NNW 03:11:12 87° E 03:17:04 10° SSE
Cosmos 2263 Rocket 4.2 03:08:00 10° NNW 03:13:03 32° NE 03:18:02 10° E
USA 161 1.6 03:11:10 10° SSE 03:13:59 74° ENE 03:16:44 10° N
Abrixas 4.1 03:16:08 18° S 03:16:08 18° S 03:17:58 10° SSE
OPS 8737 4.5 03:14:22 19° SSW 03:16:28 60° SE 03:19:52 10° NE
Cosmos 990 Rocket 4.0 03:11:34 10° NNW 03:16:49 68° WSW 03:22:02 10° SSE
Okean O Rocket 4.3 03:18:18 10° NE 03:20:39 14° E 03:23:01 10° ESE
Cosmos 1441 Rocket 3.6 03:17:20 10° N 03:21:20 69° ENE 03:25:19 10° SSE
SeaSat 1 4.0 03:20:47 14° SW 03:22:54 17° WSW 03:26:09 10° WNW
Lacrosse 5 2.2 03:19:03 10° W 03:24:09 71° N 03:29:16 10° E
GENESIS II 4.3 03:21:10 15° SW 03:24:34 89° NW 03:28:45 10° NE
SL-24 R/B 4.2 03:20:40 10° SSE 03:25:25 87° WSW 03:29:51 10° NNW
Cosmos 468 Rocket 4.2 03:21:35 13° SSW 03:26:14 66° ESE 03:31:21 10° NNE
Cosmos 1707 3.2 03:23:49 10° NNW 03:27:36 45° W 03:30:56 13° SSW
EO 1 Del DPAF 3.7 03:24:57 10° SSE 03:28:48 66° ENE 03:32:41 10° N
Cosmos 2227 4.3 03:24:08 10° NNW 03:29:57 86° ENE 03:35:44 10° SE
Cosmos 1656 4.3 03:24:57 10° S 03:30:22 50° ESE 03:35:49 10° NE
NOSS 2-1 (D) 4.3 03:27:08 13° SSW 03:30:27 43° SE 03:35:05 10° ENE
NOSS 2-1 (C) 4.3 03:28:29 13° SSW 03:31:51 44° SE 03:36:29 10° ENE
Cosmos 1953 4.2 03:29:05 10° SSE 03:32:34 28° E 03:36:06 10° NNE
Cosmos 1408 Rocket 3.6 03:29:00 10° NNW 03:33:25 87° E 03:37:50 10° SSE
CZ-2D R/B 3.2 03:28:17 10° NNE 03:33:32 44° E 03:38:42 10° S
IRS-1C 4.2 03:28:43 10° NNE 03:34:07 89° ESE 03:39:25 10° SSW
Gblst 52 Del rocket 4.4 03:28:20 10° W 03:34:50 64° S 03:40:34 10° ESE
Cosmos 1766 Rocket 3.6 03:32:36 10° NNW 03:37:02 87° E 03:41:28 10° S
AQUA 3.9 03:34:10 10° NNE 03:38:56 70° WNW 03:43:27 11° SSW
Cosmos 2034 Rocket 4.0 03:34:55 10° SSW 03:41:09 82° WNW 03:47:23 10° N
Nadezhda 4 Rocket 4.0 03:35:52 10° NNW 03:42:01 70° W 03:48:11 10° S
Cosmos 1812 Rocket 4.1 03:40:15 12° SW 03:44:09 46° WNW 03:48:29 10° N
In-Cosmos 22 4.2 03:41:26 10° NNW 03:46:46 84° ENE 03:52:04 10° SSE
NOSS 2-1 (E) 4.1 03:43:08 12° SSW 03:46:54 53° SE 03:51:51 10° NE
Cosmos 2084 4.5 03:44:22 10° NW 03:48:12 48° NNE 03:52:12 10° ESE
Cosmos 1125 Rocket 3.5 03:44:35 10° NNW 03:49:51 79° WSW 03:55:02 10° SSE
Cosmos 1437 3.3 03:47:10 10° N 03:50:31 64° ENE 03:53:49 10° SSE
SL-16 R/B 2.6 03:44:38 10° S 03:50:47 67° WSW 03:56:57 10° NNW
CBERS 1 LM4 rocket 4.4 03:47:05 10° NNE 03:51:51 73° WNW 03:56:41 10° SSW
Geosat 4.1 03:48:31 10° NE 03:53:35 80° ESE 03:58:38 10° SSW
NOSS 3-4 (A) 4.4 03:47:50 10° WNW 03:53:51 33° WSW 04:00:10 10° S
NOSS 3-4 (C) 4.4 03:47:55 10° WNW 03:53:59 33° WSW 04:00:22 10° S
Cosmos 1937 Rocket 4.4 03:50:10 10° NW 03:54:34 29° WSW 03:58:58 10° SSW
MTI 4.0 03:52:08 10° SSE 03:55:26 79° ENE 03:58:45 10° NNW
Cosmos 1697 Rocket 3.2 03:50:55 10° SSW 03:56:28 58° ESE 04:02:03 10° NE
Cosmos 841 Rocket 4.1 03:52:28 10° S 03:57:37 57° ESE 04:02:48 10° NNE
RESURS DK-1 2.3 03:56:19 10° NW 04:00:30 84° SW 04:04:38 10° SSE
Cosmos 1674 3.9 03:57:38 10° N 04:01:19 45° ENE 04:04:57 10° SSE
Cosmos 2227 Rocket 3.8 03:58:56 10° WNW 04:02:25 17° W 04:05:53 10° SW
GEOS 3 Rocket 4.1 03:58:05 10° SSE 04:02:55 38° SW 04:07:45 10° WNW
Cosmos 1763 Rocket 3.8 03:58:18 10° SSW 04:03:29 68° ESE 04:08:38 10° NNE
Cosmos 1980 Rocket 3.1 03:59:42 10° S 04:05:02 45° ESE 04:10:25 10° NE
ATLAS CENTAUR R/B 2.0 04:01:02 10° SW 04:06:03 69° SE 04:10:58 10° NE
ARIANE 5 R/B 2.6 04:03:46 10° NNE 04:08:55 86° WNW 04:14:06 10° SSW
Resurs 1-4 Rocket 2.2 04:07:25 10° NNE 04:12:45 82° ESE 04:18:01 10° SSW
ADEOS 3.8 04:07:39 10° N 04:12:48 59° WNW 04:17:55 10° SW
Cosmos 2026 Rocket 4.1 04:06:34 10° NNW 04:12:59 89° W 04:19:18 10° S
Cosmos 1461 3.1 04:10:22 10° NW 04:14:26 46° SW 04:18:19 10° SSE
Cosmos 2322 Rocket 4.0 04:12:37 10° SSE 04:17:11 26° ESE 04:21:46 10° NE
USA 234 3.4 04:12:00 10° E 04:18:35 83° N 04:25:09 10° WNW
